Location: Bastelaar
(51.0950°N, 3.8602°E)
Time: 07:45:07
(UTC+00:00)

BlueWalker 3 - Pass Details

Date: 28 January 2026
Orbit: 450 x 461 km, 53.2° (Epoch: 11 February)

Event Time Altitude Azimuth Distance (km) Brightness Sun altitude
Rises 18:02:41 0° 261° (W) 2,456 7.4 -14.7°
Reaches altitude 10° 18:04:50 10° 264° (W) 1,584 5.9 -15.1°
Maximum altitude 18:08:23 69° 348° (NNW) 487 1.8 -15.6°
Enters shadow 18:09:44 35° 63° (ENE) 755 2.3 -15.8°
